Time,TemperatureF,DewpointF,PressureIn,WindDirection,WindDirectionDegrees,WindSpeedMPH,WindSpeedGustMPH,Humidity,HourlyPrecipIn,Conditions,Clouds,dailyrainin,SoftwareType,DateUTC
2013-08-23 00:29:00,66.9,49.2,29.80,West,264,0.0,16.0,53,0.00,CLR,,0.00,WeatherDisplay:10.37,2013-08-23 05:29:00,
2013-08-23 00:59:00,66.4,48.2,29.80,NNE,33,2.0,14.0,52,0.00,CLR,,0.00,WeatherDisplay:10.37,2013-08-23 05:59:00,
2013-08-23 01:29:00,65.6,47.5,29.85,NNW,336,1.0,7.0,52,0.00,CLR,,0.00,WeatherDisplay:10.37,2013-08-23 06:29:00,
2013-08-23 01:59:00,62.6,49.0,29.86,NNW,336,2.0,4.0,61,0.00,CLR,,0.00,WeatherDisplay:10.37,2013-08-23 06:59:00,
2013-08-23 02:29:00,61.7,51.0,29.85,NE,37,1.0,6.0,68,0.00,CLR,,0.00,WeatherDisplay:10.37,2013-08-23 07:29:00,
2013-08-23 02:59:00,64.0,52.8,29.83,NNW,344,3.0,7.0,67,0.00,CLR,,0.00,WeatherDisplay:10.37,2013-08-23 07:59:00,
2013-08-23 03:29:00,64.7,53.5,29.78,NNE,12,0.0,7.0,67,0.00,CLR,,0.00,WeatherDisplay:10.37,2013-08-23 08:29:00,
2013-08-23 03:59:00,64.7,53.9,29.79,East,85,0.0,11.0,68,0.00,CLR,,0.00,WeatherDisplay:10.37,2013-08-23 08:59:00,
2013-08-23 04:29:00,64.3,53.5,29.80,SE,143,0.0,7.0,68,0.00,CLR,,0.00,WeatherDisplay:10.37,2013-08-23 09:29:00,
2013-08-23 04:59:00,63.4,53.4,29.80,SSW,199,0.0,5.0,70,0.00,CLR,,0.00,WeatherDisplay:10.37,2013-08-23 09:59:00,
2013-08-23 05:29:00,61.3,53.7,29.85,SW,220,0.0,1.0,76,0.00,CLR,,0.00,WeatherDisplay:10.37,2013-08-23 10:29:00,
2013-08-23 06:00:00,58.6,52.4,29.86,SW,220,0.0,1.0,80,0.00,CLR,,0.00,WeatherDisplay:10.37,2013-08-23 11:00:00,
2013-08-23 06:30:00,55.4,51.3,29.90,SW,220,0.0,3.0,86,0.00,CLR,,0.00,WeatherDisplay:10.37,2013-08-23 11:30:00,
2013-08-23 07:00:00,54.2,51.0,29.92,SW,220,1.0,3.0,89,0.00,CLR,,0.00,WeatherDisplay:10.37,2013-08-23 12:00:00,
2013-08-23 07:30:00,52.8,49.6,29.94,SW,220,0.0,1.0,89,0.00,CLR,,0.00,WeatherDisplay:10.37,2013-08-23 12:30:00,
2013-08-23 08:00:00,53.1,50.8,29.95,SW,220,0.0,2.0,92,0.00,CLR,,0.00,WeatherDisplay:10.37,2013-08-23 13:00:00,
2013-08-23 08:30:00,55.8,54.1,29.93,SW,220,0.0,1.0,94,0.00,CLR,,0.00,WeatherDisplay:10.37,2013-08-23 13:30:00,
2013-08-23 09:00:00,60.7,57.7,29.91,SW,220,0.0,1.0,90,0.00,CLR,,0.00,WeatherDisplay:10.37,2013-08-23 14:00:00,
2013-08-23 09:30:00,67.8,54.3,29.88,SE,126,1.0,9.0,62,0.00,CLR,,0.00,WeatherDisplay:10.37,2013-08-23 14:30:00,
2013-08-23 10:00:00,67.9,54.4,29.88,ENE,77,1.0,10.0,62,0.00,CLR,,0.00,WeatherDisplay:10.37,2013-08-23 15:00:00,
2013-08-23 10:30:00,70.2,55.2,29.86,SSW,210,3.0,12.0,59,0.00,CLR,,0.00,WeatherDisplay:10.37,2013-08-23 15:30:00,
2013-08-23 11:00:00,72.3,54.2,29.85,SW,218,3.0,12.0,53,0.00,CLR,,0.00,WeatherDisplay:10.37,2013-08-23 16:00:00,
2013-08-23 11:30:00,71.2,54.2,29.88,SE,139,2.0,12.0,55,0.00,CLR,,0.00,WeatherDisplay:10.37,2013-08-23 16:30:00,
2013-08-23 12:00:00,73.9,54.6,29.85,SW,228,3.0,12.0,51,0.00,CLR,,0.00,WeatherDisplay:10.37,2013-08-23 17:00:00,
2013-08-23 12:30:00,74.0,55.7,29.84,ESE,102,2.0,9.0,53,0.00,CLR,,0.00,WeatherDisplay:10.37,2013-08-23 17:30:00,
2013-08-23 13:00:00,76.7,53.8,29.81,ENE,57,5.0,12.0,45,0.00,CLR,,0.00,WeatherDisplay:10.37,2013-08-23 18:00:00,
2013-08-23 13:30:00,73.3,53.5,29.86,WSW,243,2.0,9.0,50,0.00,CLR,,0.00,WeatherDisplay:10.37,2013-08-23 18:30:00,
2013-08-23 14:00:00,64.6,54.2,29.93,SSE,149,7.0,18.0,69,0.01,RA,,0.01,WeatherDisplay:10.37,2013-08-23 19:00:00,
2013-08-23 14:30:00,60.7,56.5,29.91,SE,138,0.0,16.0,86,0.14,RA,,0.15,WeatherDisplay:10.37,2013-08-23 19:30:00,
2013-08-23 14:59:00,61.0,57.4,29.93,SW,223,3.0,10.0,88,0.00,CLR,,0.15,WeatherDisplay:10.37,2013-08-23 19:59:00,
2013-08-23 15:29:00,60.2,56.0,29.91,East,86,1.0,10.0,86,0.00,CLR,,0.15,WeatherDisplay:10.37,2013-08-23 20:29:00,
2013-08-23 15:59:00,59.3,54.8,29.89,South,178,2.0,12.0,85,0.02,CLR,,0.17,WeatherDisplay:10.37,2013-08-23 20:59:00,
2013-08-23 16:29:00,59.9,56.1,29.88,North,2,0.0,9.0,87,0.00,CLR,,0.17,WeatherDisplay:10.37,2013-08-23 21:29:00,
2013-08-23 16:59:00,62.7,56.4,29.87,North,0,0.0,6.0,80,0.00,CLR,,0.17,WeatherDisplay:10.37,2013-08-23 21:59:00,
2013-08-23 17:29:00,65.5,54.2,29.88,WSW,245,2.0,7.0,67,0.00,CLR,,0.17,WeatherDisplay:10.37,2013-08-23 22:29:00,
2013-08-23 17:59:00,68.3,56.1,29.87,ESE,123,1.0,9.0,65,0.00,CLR,,0.17,WeatherDisplay:10.37,2013-08-23 22:59:00,
2013-08-23 18:29:00,69.4,54.9,29.87,SW,217,5.0,13.0,60,0.00,CLR,,0.17,WeatherDisplay:10.37,2013-08-23 23:29:00,
2013-08-23 18:59:00,68.8,55.7,29.85,WSW,251,1.0,10.0,63,0.00,CLR,,0.17,WeatherDisplay:10.37,2013-08-23 23:59:00,
2013-08-23 19:29:00,68.8,56.1,29.85,NE,43,1.0,10.0,64,0.00,CLR,,0.17,WeatherDisplay:10.37,2013-08-24 00:29:00,
2013-08-23 19:59:00,66.9,56.4,29.87,ENE,70,5.0,12.0,69,0.00,CLR,,0.17,WeatherDisplay:10.37,2013-08-24 00:59:00,
2013-08-23 20:29:00,65.6,55.9,29.80,NE,56,1.0,10.0,71,0.00,CLR,,0.17,WeatherDisplay:10.37,2013-08-24 01:29:00,
2013-08-23 20:59:00,65.3,56.4,29.80,ENE,65,3.0,12.0,73,0.00,CLR,,0.17,WeatherDisplay:10.37,2013-08-24 01:59:00,
2013-08-23 21:29:00,64.8,55.2,29.82,ENE,74,1.0,7.0,71,0.00,CLR,,0.17,WeatherDisplay:10.37,2013-08-24 02:29:00,
2013-08-23 21:59:00,64.1,54.9,29.83,NE,47,2.0,6.0,72,0.00,CLR,,0.17,WeatherDisplay:10.37,2013-08-24 02:59:00,
2013-08-23 22:29:00,64.3,54.7,29.83,East,89,0.0,8.0,71,0.00,CLR,,0.17,WeatherDisplay:10.37,2013-08-24 03:29:00,
2013-08-23 22:59:00,65.3,54.5,29.81,East,86,3.0,10.0,68,0.00,CLR,,0.17,WeatherDisplay:10.37,2013-08-24 03:59:00,
2013-08-23 23:29:00,65.2,54.8,29.82,ENE,67,3.0,12.0,69,0.00,CLR,,0.17,WeatherDisplay:10.37,2013-08-24 04:29:00,
2013-08-23 23:59:00,64.8,54.8,29.81,North,3,2.0,7.0,70,0.00,RA,,0.00,WeatherDisplay:10.37,2013-08-24 04:59:00,